W5GGH Weather Reports


time (UTC)temp
F
wind
direction
speed
knots
gust
knots
rain 1hr
in
rain 24hr
in
rain mn
in
humidity
%
barometer
mb
20260506033715 68 22 2.6 3.5 0.00 0.00 0.00 69 1025.6
20260506033212 69 17 1.7 5.2 0.00 0.00 0.00 69 1025.6
20260506032709 69 15 4.3 7.0 0.00 0.00 0.00 69 1025.7
20260506032206 69 10 3.5 5.2 0.00 0.00 0.00 69 1025.5
20260506031703 69 6 0.9 7.0 0.00 0.00 0.00 69 1025.3
20260506031200 69 32 2.6 5.2 0.00 0.00 0.00 69 1025.1
20260506030658 69 29 5.2 7.0 0.00 0.00 0.00 69 1024.8
20260506030155 69 343 2.6 5.2 0.00 0.00 0.00 69 1024.9
20260506025652 70 35 3.5 4.3 0.00 0.00 0.00 68 1024.8
20260506025148 70 16 2.6 5.2 0.00 0.00 0.00 68 1024.6
20260506024646 70 29 1.7 3.5 0.00 0.00 0.00 68 1024.8
20260506024142 70 324 2.6 5.2 0.00 0.00 0.00 68 1024.8
20260506023638 70 316 3.5 5.2 0.00 0.00 0.00 68 1024.6
20260506023136 71 348 3.5 4.3 0.00 0.00 0.00 67 1024.4
20260506022633 71 12 4.3 5.2 0.00 0.00 0.00 67 1024.4
20260506022130 71 32 3.5 7.0 0.00 0.00 0.00 67 1024.4
20260506021628 72 49 3.5 7.0 0.00 0.00 0.00 67 1024.2
20260506021125 72 9 1.7 5.2 0.00 0.00 0.00 67 1024.2
20260506020622 72 321 2.6 5.2 0.00 0.00 0.00 67 1024.0
20260506020119 73 41 3.5 6.1 0.00 0.00 0.00 66 1023.9
20260506015617 73 36 4.3 5.2 0.00 0.00 0.00 66 1023.9
20260506015114 73 49 4.3 4.3 0.00 0.00 0.00 65 1023.6
20260506014611 73 2 2.6 7.8 0.00 0.00 0.00 65 1023.2
20260506014106 74 346 3.5 5.2 0.00 0.00 0.00 64 1023.3
20260506013605 74 23 3.5 5.2 0.00 0.00 0.00 65 1023.2
20260506013102 74 10 1.7 9.6 0.00 0.00 0.00 65 1022.9
20260506012558 74 330 2.6 7.8 0.00 0.00 0.00 65 1022.8
20260506012054 74 34 2.6 3.5 0.00 0.00 0.00 65 1022.7
20260506011552 74 359 1.7 5.2 0.00 0.00 0.00 65 1022.3
20260506011048 75 336 0.9 4.3 0.00 0.00 0.00 64 1022.2
20260506010548 75 327 1.7 7.0 0.00 0.00 0.00 64 1022.5
20260506010044 75 343 1.7 3.5 0.00 0.00 0.00 64 1022.4
20260506005541 75 3 1.7 4.3 0.00 0.00 0.00 63 1022.3
20260506005037 76 77 2.6 5.2 0.00 0.00 0.00 63 1022.4
20260506004535 76 14 1.7 3.5 0.00 0.00 0.00 62 1022.4
20260506004031 76 27 3.5 5.2 0.00 0.00 0.00 62 1022.3
20260506003528 77 1 1.7 4.3 0.00 0.00 0.00 61 1022.1
20260506003024 77 19 2.6 4.3 0.00 0.00 0.00 61 1021.9
20260506002520 77 351 2.6 4.3 0.00 0.00 0.00 60 1021.9
20260506002016 77 330 4.3 4.3 0.00 0.00 0.00 59 1022.0
20260506001512 78 356 2.6 5.2 0.00 0.00 0.00 59 1021.9
20260506001010 78 33 5.2 7.0 0.00 0.00 0.00 58 1021.9
20260506000507 78 26 1.7 5.2 0.00 0.00 0.00 58 1022.0
20260506000004 79 26 2.6 6.1 0.00 0.00 0.00 57 1022.0
20260505235502 79 25 1.7 7.0 0.00 0.00 0.00 57 1022.0
20260505234958 80 24 5.2 5.2 0.00 0.00 0.00 58 1021.6
20260505234456 80 49 1.7 5.2 0.00 0.00 0.00 56 1021.5
20260505233952 80 10 6.1 7.8 0.00 0.00 0.00 56 1021.6
20260505233450 81 21 1.7 5.2 0.00 0.00 0.00 58 1021.3
20260505232947 81 5 1.7 4.3 0.00 0.00 0.00 57 1021.3
20260505232445 82 17 3.5 5.2 0.00 0.00 0.00 56 1021.3
20260505231942 82 29 7.0 9.6 0.00 0.00 0.00 56 1021.2
20260505231439 83 65 1.7 6.1 0.00 0.00 0.00 57 1021.0
20260505230937 84 3 1.7 7.0 0.00 0.00 0.00 56 1020.9
20260505230435 85 9 1.7 6.1 0.00 0.00 0.00 55 1021.0
20260505225931 86 336 1.7 5.2 0.00 0.00 0.00 52 1020.7
20260505225428 86 358 1.7 5.2 0.00 0.00 0.00 49 1020.8
20260505224924 87 19 1.7 3.5 0.00 0.00 0.00 46 1020.8
20260505224421 88 353 1.7 3.5 0.00 0.00 0.00 45 1020.6
20260505223918 89 340 2.6 5.2 0.00 0.00 0.00 45 1020.5
20260505223415 89 1 3.5 5.2 0.00 0.00 0.00 46 1020.6
20260505222911 90 43 0.9 4.3 0.00 0.00 0.00 45 1020.5
20260505222408 91 27 4.3 5.2 0.00 0.00 0.00 43 1020.5
20260505221904 93 2 1.7 2.6 0.00 0.00 0.00 43 1020.3
20260505221401 93 0 1.7 3.5 0.00 0.00 0.00 44 1020.4
20260505220858 92 26 1.7 2.6 0.00 0.00 0.00 44 1020.2
20260505220355 92 356 1.7 3.5 0.00 0.00 0.00 43 1020.2
20260505215853 92 356 1.7 2.6 0.00 0.00 0.00 44 1020.1
20260505215351 92 12 1.7 2.6 0.00 0.00 0.00 44 1020.3
20260505214849 92 20 0.9 2.6 0.00 0.00 0.00 43 1020.2
20260505214346 92 330 1.7 2.6 0.00 0.00 0.00 41 1020.1
20260505213843 92 6 1.7 2.6 0.00 0.00 0.00 43 1020.2
20260505213341 93 334 1.7 3.5 0.00 0.00 0.00 41 1020.3
20260505212837 94 318 2.6 2.6 0.00 0.00 0.00 42 1020.3
20260505212334 93 338 1.7 4.3 0.00 0.00 0.00 41 1020.4
20260505211830 94 5 2.6 4.3 0.00 0.00 0.00 40 1020.3
20260505211328 94 310 2.6 2.6 0.00 0.00 0.00 44 1020.4
20260505210824 94 139 0.0 1.7 0.00 0.00 0.00 46 1020.4
20260505210321 94 50 0.9 1.7 0.00 0.00 0.00 47 1020.7
20260505205818 94 19 0.9 1.7 0.00 0.00 0.00 42 1020.6
20260505205316 94 23 0.9 3.5 0.00 0.00 0.00 46 1020.9
20260505204812 94 23 0.9 1.7 0.00 0.00 0.00 46 1020.9
20260505204311 94 50 1.7 1.7 0.00 0.00 0.00 45 1020.9
20260505203808 95 317 2.6 3.5 0.00 0.00 0.00 43 1021.0
20260505203304 94 16 1.7 1.7 0.00 0.00 0.00 44 1020.7
20260505202800 94 117 0.9 2.6 0.00 0.00 0.00 44 1020.9
20260505202256 93 61 0.9 2.6 0.00 0.00 0.00 47 1021.0
20260505201753 92 9 1.7 2.6 0.00 0.00 0.00 49 1021.0
20260505201251 92 14 2.6 2.6 0.00 0.00 0.00 48 1021.2
20260505200749 92 126 0.0 2.6 0.00 0.00 0.00 48 1021.2
20260505200246 92 128 0.0 5.2 0.00 0.00 0.00 47 1021.2
20260505195741 92 29 0.0 4.3 0.00 0.00 0.00 46 1021.2
20260505195239 92 28 0.0 4.3 0.00 0.00 0.00 47 1021.3
20260505194736 93 345 2.6 2.6 0.00 0.00 0.00 47 1021.4
20260505194232 92 1 1.7 3.5 0.00 0.00 0.00 49 1021.6
20260505193728 92 0 0.9 3.5 0.00 0.00 0.00 50 1021.5
20260505193226 91 49 1.7 2.6 0.00 0.00 0.00 54 1021.4
20260505192724 91 145 0.0 2.6 0.00 0.00 0.00 53 1021.7
20260505192221 91 145 0.0 2.6 0.00 0.00 0.00 55 1021.5
20260505191719 90 33 0.0 1.7 0.00 0.00 0.00 56 1021.6
20260505191218 90 273 1.7 2.6 0.00 0.00 0.00 57 1021.6
20260505190714 90 66 0.0 3.5 0.00 0.00 0.00 55 1021.3
20260505190213 90 185 1.7 3.5 0.00 0.00 0.00 55 1021.2
20260505185710 89 287 1.7 3.5 0.00 0.00 0.00 55 1021.4
20260505185207 89 121 1.7 4.3 0.00 0.00 0.00 57 1021.6
20260505184703 89 21 0.9 1.7 0.00 0.00 0.00 63 1021.4
20260505184200 89 142 1.7 2.6 0.00 0.00 0.00 58 1021.7
20260505183657 89 57 1.7 3.5 0.00 0.00 0.00 59 1021.7
20260505183155 89 53 1.7 2.6 0.00 0.00 0.00 61 1021.7
20260505182650 88 12 1.7 4.3 0.00 0.00 0.00 61 1021.8
20260505182148 88 352 1.7 3.5 0.00 0.00 0.00 60 1021.8
20260505181644 88 57 1.7 3.5 0.00 0.00 0.00 62 1022.0
20260505181142 87 353 1.7 4.3 0.00 0.00 0.00 61 1021.8
20260505180638 87 349 0.9 4.3 0.00 0.00 0.00 63 1021.9
20260505180135 86 133 1.7 3.5 0.00 0.00 0.00 63 1022.1
20260505175631 86 19 1.7 3.5 0.00 0.00 0.00 64 1022.0
20260505175128 86 326 1.7 2.6 0.00 0.00 0.00 65 1021.8
20260505174624 86 222 1.7 3.5 0.00 0.00 0.00 63 1022.0
20260505174120 85 135 0.0 2.6 0.00 0.00 0.00 64 1022.1
20260505173617 85 183 0.9 3.5 0.00 0.00 0.00 65 1022.0
20260505173114 84 36 1.7 3.5 0.00 0.00 0.00 65 1022.0
20260505172612 84 20 0.0 3.5 0.00 0.00 0.00 66 1022.3
20260505172108 84 298 1.7 3.5 0.00 0.00 0.00 67 1022.1
20260505171603 83 198 0.0 4.3 0.00 0.00 0.00 67 1022.1
20260505171100 82 69 1.7 2.6 0.00 0.00 0.00 68 1022.3
20260505170557 82 320 1.7 1.7 0.00 0.00 0.00 69 1022.2
20260505170053 82 123 0.9 2.6 0.00 0.00 0.00 68 1022.3
20260505165548 82 308 2.6 3.5 0.00 0.00 0.00 68 1022.2
20260505165045 82 137 0.9 4.3 0.00 0.00 0.00 69 1022.2
20260505164540 83 91 1.7 3.5 0.00 0.00 0.00 67 1022.3
20260505164038 83 92 1.7 4.3 0.00 0.00 0.00 68 1022.2
20260505163537 82 49 0.9 3.5 0.00 0.00 0.00 68 1022.1
20260505163033 82 239 0.0 2.6 0.00 0.00 0.00 70 1021.9
20260505162532 81 75 1.7 3.5 0.00 0.00 0.00 71 1021.9
20260505162029 80 115 0.9 2.6 0.00 0.00 0.00 71 1021.9
20260505161526 80 310 1.7 2.6 0.00 0.00 0.00 72 1021.7
20260505161023 80 171 2.6 4.3 0.00 0.00 0.00 71 1021.8
20260505160521 80 13 0.9 2.6 0.00 0.00 0.00 71 1021.8
20260505152957 77 71 1.7 3.5 0.00 0.00 0.00 76 1022.0
20260505152455 77 18 2.6 3.5 0.00 0.00 0.00 76 1021.9
20260505151950 77 30 1.7 5.2 0.00 0.00 0.00 76 1022.1
20260505151445 77 126 1.7 3.5 0.00 0.00 0.00 76 1021.9
20260505150943 77 5 0.9 2.6 0.00 0.00 0.00 77 1021.9
20260505150440 77 133 0.9 6.1 0.00 0.00 0.00 76 1021.9
20260505140410 74 34 1.7 3.5 0.00 0.00 0.00 82 1021.8
20260505124823 71 65 0.9 3.5 0.00 0.00 0.00 87 1021.4
20260505124320 71 0 1.7 2.6 0.00 0.00 0.00 87 1021.4
20260505123816 71 156 3.5 4.3 0.00 0.00 0.00 87 1021.0
20260505123313 71 212 1.7 2.6 0.00 0.00 0.00 87 1021.4
20260505122809 71 9 2.6 4.3 0.00 0.00 0.00 87 1021.2
20260505122307 71 307 0.9 3.5 0.00 0.00 0.00 87 1021.1
20260505121803 71 93 1.7 3.5 0.00 0.00 0.00 87 1021.0
20260505121300 71 303 1.7 4.3 0.00 0.00 0.00 88 1021.1
20260505120756 71 347 2.6 2.6 0.00 0.00 0.00 88 1021.2
20260505120252 70 82 1.7 3.5 0.00 0.00 0.00 88 1021.0
20260505115751 70 33 0.9 2.6 0.00 0.00 0.00 88 1020.8
20260505115249 70 49 1.7 2.6 0.00 0.00 0.00 88 1020.7
20260505114746 70 315 1.7 2.6 0.00 0.00 0.00 89 1020.7
20260505114242 70 177 0.0 2.6 0.00 0.00 0.00 89 1020.8
20260505113739 70 43 2.6 3.5 0.00 0.00 0.00 89 1020.9
20260505113235 69 103 1.7 2.6 0.00 0.00 0.00 90 1020.8
20260505112731 69 343 1.7 3.5 0.00 0.00 0.00 90 1020.6
20260505112229 69 61 1.7 2.6 0.00 0.00 0.00 90 1020.5
20260505111729 69 40 1.7 2.6 0.00 0.00 0.00 90 1020.7
20260505111225 69 115 2.6 3.5 0.00 0.00 0.00 91 1020.7
20260505110721 69 49 2.6 2.6 0.00 0.00 0.00 90 1020.7
20260505110219 69 42 1.7 1.7 0.00 0.00 0.00 90 1020.7
20260505102154 69 359 0.9 3.5 0.00 0.00 0.00 90 1020.5
20260505101653 69 13 1.7 2.6 0.00 0.00 0.00 90 1020.4
20260505101149 69 46 0.0 2.6 0.00 0.00 0.00 89 1020.4
20260505100645 69 65 1.7 2.6 0.00 0.00 0.00 89 1020.5
20260505100142 69 340 1.7 3.5 0.00 0.00 0.00 89 1020.6
20260505095638 69 109 0.9 3.5 0.00 0.00 0.00 89 1020.7
20260505095136 69 17 1.7 3.5 0.00 0.00 0.00 89 1020.8
20260505094631 69 150 0.9 2.6 0.00 0.00 0.00 89 1020.7
20260505094128 69 20 2.6 2.6 0.00 0.00 0.00 89 1020.8
20260505093624 69 63 0.9 3.5 0.00 0.00 0.00 89 1020.8
20260505093121 69 37 0.0 2.6 0.00 0.00 0.00 88 1020.9
20260505092619 69 349 0.9 2.6 0.00 0.00 0.00 88 1021.0
20260505092118 69 101 0.9 4.3 0.00 0.00 0.00 88 1020.9
20260505091613 69 106 1.7 3.5 0.00 0.00 0.00 88 1021.3
20260505091112 69 41 1.7 3.5 0.00 0.00 0.00 88 1020.9
20260505090609 70 64 2.6 3.5 0.00 0.00 0.00 88 1021.1
20260505090108 70 59 1.7 3.5 0.00 0.00 0.00 87 1021.2
20260505085604 70 310 3.5 3.5 0.00 0.00 0.00 87 1021.3
20260505085103 70 48 1.7 3.5 0.00 0.00 0.00 87 1021.1
20260505084600 70 45 1.7 5.2 0.00 0.00 0.00 87 1021.3
20260505084058 70 92 1.7 4.3 0.00 0.00 0.00 86 1021.2
20260505083555 70 123 1.7 4.3 0.00 0.00 0.00 86 1021.2
20260505083052 70 100 1.7 3.5 0.00 0.00 0.00 86 1021.3
20260505082548 71 312 3.5 3.5 0.00 0.00 0.00 85 1021.3
20260505082045 71 325 3.5 3.5 0.00 0.00 0.00 85 1021.3
20260505081541 71 256 0.9 3.5 0.00 0.00 0.00 85 1021.3
20260505081038 71 337 1.7 4.3 0.00 0.00 0.00 84 1021.3
20260505080534 71 18 2.6 3.5 0.00 0.00 0.00 84 1021.1
20260505080031 71 185 2.6 4.3 0.00 0.00 0.00 83 1021.0
20260505075527 71 273 0.9 3.5 0.00 0.00 0.00 83 1021.1
20260505075024 71 61 1.7 3.5 0.00 0.00 0.00 83 1021.2
20260505074521 71 34 0.9 2.6 0.00 0.00 0.00 82 1021.5
20260505074019 71 16 2.6 2.6 0.00 0.00 0.00 82 1021.6
20260505073516 71 33 1.7 3.5 0.00 0.00 0.00 81 1021.4
20260505073014 72 350 2.6 7.0 0.00 0.00 0.00 81 1021.7
20260505072509 72 110 1.7 5.2 0.00 0.00 0.00 81 1021.7
20260505072006 72 118 2.6 4.3 0.00 0.00 0.00 80 1021.8
20260505071501 72 6 1.7 3.5 0.00 0.00 0.00 80 1021.6
20260505071000 72 135 3.5 3.5 0.00 0.00 0.00 79 1021.8
20260505070456 72 6 2.6 4.3 0.00 0.00 0.00 79 1022.2
20260505065952 72 339 1.7 2.6 0.00 0.00 0.00 79 1022.0
20260505065448 72 27 0.9 3.5 0.00 0.00 0.00 78 1022.1
20260505064945 72 92 3.5 4.3 0.00 0.00 0.00 78 1022.2
20260505064442 72 345 1.7 3.5 0.00 0.00 0.00 78 1022.2
20260505063941 72 341 1.7 4.3 0.00 0.00 0.00 78 1022.3
20260505063437 72 22 1.7 2.6 0.00 0.00 0.00 78 1022.4
20260505062933 72 331 2.6 2.6 0.00 0.00 0.00 77 1022.3
20260505062431 72 352 2.6 6.1 0.00 0.00 0.00 77 1022.4
20260505061927 72 24 2.6 3.5 0.00 0.00 0.00 77 1022.5
20260505061426 73 24 0.9 3.5 0.00 0.00 0.00 76 1022.4
20260505060923 73 333 3.5 5.2 0.00 0.00 0.00 76 1022.4
20260505060420 73 354 2.6 2.6 0.00 0.00 0.00 76 1022.6
20260505055916 73 348 1.7 3.5 0.00 0.00 0.00 75 1022.6
20260505055412 73 41 0.9 3.5 0.00 0.00 0.00 75 1022.3
20260505054908 73 71 2.6 3.5 0.00 0.00 0.00 75 1022.1
20260505054406 73 307 2.6 4.3 0.00 0.00 0.00 75 1022.2
20260505053904 73 352 2.6 4.3 0.00 0.00 0.00 75 1022.3
20260505053401 73 289 0.9 2.6 0.00 0.00 0.00 74 1022.2
20260505052858 73 156 2.6 2.6 0.00 0.00 0.00 74 1022.1
20260505052355 74 32 1.7 4.3 0.00 0.00 0.00 74 1022.0
20260505051852 74 65 1.7 3.5 0.00 0.00 0.00 74 1022.1
20260505051349 74 24 2.6 3.5 0.00 0.00 0.00 74 1022.5
20260505050847 74 286 1.7 3.5 0.00 0.00 0.00 73 1022.4
20260505050345 74 137 3.5 5.2 0.00 0.00 0.00 73 1022.4
20260505041313 75 119 1.7 4.3 0.00 0.00 0.00 71 1022.4
20260505040810 75 97 0.9 4.3 0.00 0.00 0.00 71 1022.6
20260505040307 75 207 0.0 3.5 0.00 0.00 0.00 71 1022.4
20260505035804 75 168 0.9 4.3 0.00 0.00 0.00 71 1022.5
20260505035259 75 137 1.7 4.3 0.00 0.00 0.00 71 1022.4
20260505034757 75 54 1.7 4.3 0.00 0.00 0.00 71 1022.3
20260505034254 75 333 1.7 7.8 0.00 0.00 0.00 70 1022.4